shenyang , China , ASIA

  • Thursday
    September 20

      Thundershower

      57 °F

      Southwest

       

  • Friday
    September 21

    Thundershower  Sunny

    70 °F  48 °F

    Southwest  Southwest

    3~4L   3~4L 

  • Saturday
    September 22

    Sunny  Cloudy

    70 °F  50 °F

    Southwest  Southwest

    3~4L    

  • Sunday
    September 23

    Cloudy  Sunny

    66 °F  46 °F

    Northwest  Northwest

        

  • Monday
    September 24

    Sunny  Sunny

    66 °F  45 °F

    Northwest  Northwest

        

  • Tuesday
    September 25

    Sunny  Sunny

    70 °F  46 °F

    Northeast  Northeast

        

  • Wednesday
    September 26

    Sunny  Sunny

    72 °F  52 °F

    Southeast  Southeast

        

Date   Weather Temperature Humidity Total_rain Visibility Wind
23:00 Sunny 59°F 76.2% 0mm 999.9km Southwest  0.7m/s
02:00 Thundershower 58°F 83.2% 0.4mm 999.9km Southwest  0.9m/s
05:00 Thundershower 58°F 87.9% 0.5mm 999.9km Southwest  1.0m/s
08:00 Thundershower 65°F 92.2% 2.4mm 999.9km Southwest  1.8m/s
11:00 Thundershower 68°F 85.9% 2.4mm 999.9km Southwest  2.7m/s
14:00 Thundershower 69°F 80.6% 3.7mm 999.9km Southwest  3.3m/s
17:00 Thundershower 68°F 72.5% 1.1mm 999.9km Southwest  2.6m/s
20:00 Sunny 58°F 70.3% 0mm 999.9km Southwest  1.0m/s
23:00 Sunny 57°F 86.6% 0mm 999.9km Southwest  1.4m/s
02:00 Sunny 51°F 87.6% 0mm 999.9km Southwest  1.1m/s
05:00 Sunny 49°F 94.2% 0mm 999.9km Southeast  0.7m/s
08:00 Sunny 58°F 79.7% 0mm 999.9km Southwest  1.3m/s
11:00 Sunny 69°F 63.2% 0mm 999.9km Northwest  2.0m/s
14:00 Sunny 69°F 59.8% 0mm 999.9km Southwest  2.9m/s
17:00 Sunny 65°F 65% 0mm 999.9km Southwest  2.2m/s
20:00 Sunny 58°F 52.9% 0mm 999.9km Southwest  0.6m/s
23:00 Cloudy 54°F 85.9% 0mm 999.9km Southwest  0.7m/s
02:00 Cloudy 50°F 89.4% 0mm 999.9km Southwest  0.7m/s
05:00 Cloudy 51°F 91% 0mm 999.9km Southwest  1.1m/s
08:00 Cloudy 57°F 85.8% 0mm 999.9km West  1.7m/s
11:00 Cloudy 65°F 69.6% 0mm 999.9km Northwest  2.9m/s
14:00 Cloudy 66°F 67.2% 0mm 999.9km Northwest  3.3m/s
17:00 Cloudy 64°F 66.3% 0mm 999.9km Northwest  1.3m/s
20:00 Cloudy 59°F 56.8% 0mm 999.9km Northwest  0.9m/s
23:00 Sunny 52°F 78.8% 0mm 999.9km Northwest  0.7m/s
02:00 Sunny 52°F 87% 0mm 999.9km Northwest  0.5m/s
05:00 Sunny 47°F 90.7% 0mm 999.9km Northwest  1.1m/s
08:00 Sunny 55°F 76.9% 0mm 999.9km Northwest  1.8m/s
11:00 Sunny 61°F 66.4% 0mm 999.9km Northwest  1.9m/s
14:00 Sunny 66°F 63.6% 0mm 999.9km Northwest  2.0m/s
17:00 Sunny 63°F 65.4% 0mm 999.9km Northeast  1.5m/s
20:00 Sunny 54°F 52.8% 0mm 999.9km Southeast  0.5m/s
23:00 Sunny 48°F 94.4% 0mm 999.9km Southeast  1.1m/s
02:00 Sunny 47°F 98% 0mm 999.9km Southeast  0.9m/s
05:00 Sunny 45°F 95.9% 0mm 999.9km Southeast  2.3m/s
08:00 Sunny 54°F 78.2% 0mm 999.9km Southeast  1.7m/s
11:00 Sunny 66°F 62.5% 0mm 999.9km Northwest  2.2m/s
14:00 Sunny 69°F 57.6% 0mm 999.9km Northwest  2.2m/s
17:00 Sunny 65°F 60.3% 0mm 999.9km Northeast  1.5m/s
20:00 Sunny 59°F 50.4% 0mm 999.9km Southeast  1.0m/s
23:00 Sunny 52°F 78.3% 0mm 999.9km Southeast  1.5m/s
02:00 Sunny 49°F 88.3% 0mm 999.9km Southeast  0.5m/s
05:00 Sunny 47°F 83.9% 0mm 999.9km Northeast  0.4m/s
08:00 Sunny 56°F 69.2% 0mm 999.9km Southeast  1.6m/s
11:00 Sunny 68°F 51.8% 0mm 999.9km Northeast  2.4m/s
14:00 Sunny 71°F 56.8% 0mm 999.9km Southwest  1.7m/s
17:00 Sunny 71°F 56.9% 0mm 999.9km Northeast  2.2m/s
20:00 Sunny 59°F 47.3% 0mm 999.9km Southeast  1.4m/s
23:00 Sunny 55°F 83.3% 0mm 999.9km Southeast  0.6m/s
02:00 Sunny 53°F 89.1% 0mm 999.9km Southeast  1.3m/s
05:00 Sunny 52°F 82.1% 0mm 999.9km Southeast  1.1m/s